,,Stat6,,Stat2,,Stat8,,Stat9,,Stat10,,Wind1,,Wind1,
time,status,PA1M_AVG,status,PR1M_SUM,status,RH1M_AVG,status,SR1M_AVG,status,TA1M_AVG,status,W1dAve1m,status,W1sAve1m,
2005-01-31, 00:00:00,VALID,919.179,VALID,0,VALID,89.9533,VALID,0,VALID,18.7035,VALID,290,VALID,0.0582217,
2005-01-31, 00:01:00,VALID,919.175,VALID,0,VALID,90.0957,VALID,-0.0169808,VALID,18.7005,VALID,292,VALID,0.34304,
2005-01-31, 00:02:00,VALID,919.152,VALID,0,VALID,90.4899,VALID,-0.0339617,VALID,18.6615,VALID,284,VALID,0.339571,
2005-01-31, 00:03:00,VALID,919.125,VALID,0,VALID,90.949,VALID,-0.0169808,VALID,18.6255,VALID,283,VALID,0.0933689,
2005-01-31, 00:04:00,VALID,919.096,VALID,0,VALID,91.0596,VALID,0,VALID,18.6324,VALID,283,VALID,0.0264863,
2005-01-31, 00:05:00,VALID,919.068,VALID,0,VALID,90.8205,VALID,-0.0169808,VALID,18.6195,VALID,11,VALID,0.191493,
2005-01-31, 00:06:00,VALID,919.048,VALID,0,VALID,91.0812,VALID,-0.0169808,VALID,18.6161,VALID,38,VALID,0.0381541,
2005-01-31, 00:07:00,VALID,919.043,VALID,0,VALID,91.1003,VALID,0,VALID,18.6068,VALID,38,VALID,0,
2005-01-31, 00:08:00,VALID,919.031,VALID,0,VALID,91.1308,VALID,-0.0169808,VALID,18.5942,VALID,38,VALID,0.10103,
2005-01-31, 00:09:00,VALID,919.034,VALID,0,VALID,91.2809,VALID,0,VALID,18.5808,VALID,38,VALID,0.459484,
2005-01-31, 00:10:00,VALID,919.022,VALID,0,VALID,91.2987,VALID,-0.0169808,VALID,18.5487,VALID,37,VALID,0.629616,
2005-01-31, 00:11:00,VALID,919.01,VALID,0,VALID,91.1092,VALID,-0.0339617,VALID,18.4486,VALID,30,VALID,1.35813,
2005-01-31, 00:12:00,VALID,918.993,VALID,0,VALID,90.6807,VALID,0,VALID,18.4579,VALID,17,VALID,1.79609,
2005-01-31, 00:13:00,VALID,918.985,VALID,0,VALID,89.9533,VALID,0,VALID,18.6031,VALID,20,VALID,1.43099,
2005-01-31, 00:14:00,VALID,918.966,VALID,0,VALID,89.6583,VALID,0,VALID,18.6838,VALID,18,VALID,1.13746,
2005-01-31, 00:15:00,VALID,918.959,VALID,0,VALID,89.5718,VALID,-0.0169808,VALID,18.7064,VALID,20,VALID,0.896257,
2005-01-31, 00:16:00,VALID,918.954,VALID,0,VALID,89.6507,VALID,-0.0169808,VALID,18.6774,VALID,20,VALID,0.669965,
2005-01-31, 00:17:00,VALID,918.934,VALID,0,VALID,89.8439,VALID,0.0169808,VALID,18.6615,VALID,26,VALID,0.621875,
2005-01-31, 00:18:00,VALID,918.931,VALID,0,VALID,89.9749,VALID,0,VALID,18.6647,VALID,27,VALID,0.600654,
2005-01-31, 00:19:00,VALID,918.911,VALID,0,VALID,89.8643,VALID,0,VALID,18.6804,VALID,31,VALID,0.63891,
2005-01-31, 00:20:00,VALID,918.909,VALID,0,VALID,89.7282,VALID,-0.0339617,VALID,18.7268,VALID,41,VALID,0.54633,
2005-01-31, 00:21:00,VALID,918.915,VALID,0,VALID,89.5807,VALID,-0.0679233,VALID,18.7787,VALID,41,VALID,0.332589,
2005-01-31, 00:22:00,VALID,918.912,VALID,0,VALID,89.5489,VALID,-0.0509425,VALID,18.8135,VALID,41,VALID,0.167969,
2005-01-31, 00:23:00,VALID,918.909,VALID,0,VALID,89.7727,VALID,-0.0339617,VALID,18.8358,VALID,41,VALID,0.309304,
2005-01-31, 00:24:00,VALID,918.91,VALID,0,VALID,89.8986,VALID,-0.0339617,VALID,18.8425,VALID,34,VALID,0.441493,
2005-01-31, 00:25:00,VALID,918.884,VALID,0,VALID,89.8783,VALID,-0.0509425,VALID,18.8098,VALID,19,VALID,0.563565,
2005-01-31, 00:26:00,VALID,918.877,VALID,0,VALID,89.6519,VALID,-0.0169808,VALID,18.7551,VALID,15,VALID,0.50362,
2005-01-31, 00:27:00,VALID,918.855,VALID,0,VALID,89.1535,VALID,-0.0679233,VALID,18.807,VALID,4,VALID,0.774528,
2005-01-31, 00:28:00,VALID,918.835,VALID,0,VALID,88.6461,VALID,-0.0679233,VALID,18.9329,VALID,3,VALID,0.813772,
2005-01-31, 00:29:00,VALID,918.827,VALID,0,VALID,88.1832,VALID,-0.0509425,VALID,19.0333,VALID,6,VALID,0.795945,
2005-01-31, 00:30:00,VALID,918.796,VALID,0,VALID,87.653,VALID,-0.0339617,VALID,19.1239,VALID,7,VALID,0.687691,
2005-01-31, 00:31:00,VALID,918.776,VALID,0,VALID,86.8875,VALID,-0.0339617,VALID,19.227,VALID,11,VALID,0.609375,
2005-01-31, 00:32:00,VALID,918.781,VALID,0,VALID,86.4449,VALID,-0.0679233,VALID,19.3336,VALID,6,VALID,0.523264,
2005-01-31, 00:33:00,VALID,918.767,VALID,0,VALID,86.1131,VALID,-0.0679233,VALID,19.427,VALID,14,VALID,0.694382,
2005-01-31, 00:34:00,VALID,918.78,VALID,0,VALID,85.6922,VALID,-0.0849042,VALID,19.4888,VALID,22,VALID,0.815168,
2005-01-31, 00:35:00,VALID,918.783,VALID,0,VALID,85.2802,VALID,-0.0679233,VALID,19.5211,VALID,24,VALID,0.977121,
2005-01-31, 00:36:00,VALID,918.796,VALID,0,VALID,85.1886,VALID,-0.0339617,VALID,19.582,VALID,23,VALID,0.725632,
2005-01-31, 00:37:00,VALID,918.808,VALID,0,VALID,84.8338,VALID,-0.0339617,VALID,19.6215,VALID,16,VALID,0.773056,
2005-01-31, 00:38:00,VALID,918.805,VALID,0,VALID,84.8186,VALID,-0.0509425,VALID,19.6334,VALID,15,VALID,0.75,
2005-01-31, 00:39:00,VALID,918.809,VALID,0,VALID,84.7944,VALID,-0.0339617,VALID,19.6563,VALID,22,VALID,0.757813,
2005-01-31, 00:40:00,VALID,918.816,VALID,0,VALID,84.9902,VALID,-0.0339617,VALID,19.6627,VALID,31,VALID,0.87168,
2005-01-31, 00:41:00,VALID,918.803,VALID,0,VALID,84.9534,VALID,-0.0339617,VALID,19.6493,VALID,24,VALID,0.812891,
2005-01-31, 00:42:00,VALID,918.795,VALID,0,VALID,84.7919,VALID,-0.0679233,VALID,19.662,VALID,30,VALID,0.710392,
2005-01-31, 00:43:00,VALID,918.769,VALID,0,VALID,84.9063,VALID,-0.0509425,VALID,19.6851,VALID,29,VALID,0.533794,
2005-01-31, 00:44:00,VALID,918.738,VALID,0,VALID,84.7029,VALID,-0.0169808,VALID,19.6977,VALID,34,VALID,0.549538,
2005-01-31, 00:45:00,VALID,918.722,VALID,0,VALID,84.8313,VALID,-0.0339617,VALID,19.7077,VALID,92,VALID,0.744606,
2005-01-31, 00:46:00,VALID,918.689,VALID,0,VALID,85.832,VALID,-0.0339617,VALID,19.6977,VALID,122,VALID,0.970982,
2005-01-31, 00:47:00,VALID,918.687,VALID,0,VALID,87.5703,VALID,-0.0169808,VALID,19.623,VALID,139,VALID,1.05025,
2005-01-31, 00:48:00,VALID,918.674,VALID,0,VALID,89.0835,VALID,-0.0679233,VALID,19.4779,VALID,136,VALID,1.04563,
2005-01-31, 00:49:00,VALID,918.678,VALID,0,VALID,90.3628,VALID,-0.0339617,VALID,19.3102,VALID,133,VALID,0.864099,
2005-01-31, 00:50:00,VALID,918.658,VALID,0,VALID,91.1143,VALID,-0.0509425,VALID,19.1523,VALID,119,VALID,0.978693,
2005-01-31, 00:51:00,VALID,918.616,VALID,0,VALID,92.0146,VALID,-0.0849042,VALID,18.9973,VALID,123,VALID,1.11022,
2005-01-31, 00:52:00,VALID,918.582,VALID,0,VALID,92.7318,VALID,-0.0509425,VALID,18.858,VALID,126,VALID,1.19004,
2005-01-31, 00:53:00,VALID,918.545,VALID,0,VALID,93.318,VALID,-0.0339617,VALID,18.7678,VALID,123,VALID,1.11223,
2005-01-31, 00:54:00,VALID,918.522,VALID,0,VALID,93.6778,VALID,0,VALID,18.6834,VALID,122,VALID,1.45368,
2005-01-31, 00:55:00,VALID,918.494,VALID,0,VALID,93.7211,VALID,-0.0169808,VALID,18.6453,VALID,121,VALID,1.37309,
2005-01-31, 00:56:00,VALID,918.495,VALID,0,VALID,93.5977,VALID,-0.0679233,VALID,18.6322,VALID,118,VALID,1.21894,
2005-01-31, 00:57:00,VALID,918.482,VALID,0,VALID,93.2391,VALID,-0.0339617,VALID,18.632,VALID,117,VALID,1.16921,
2005-01-31, 00:58:00,VALID,918.463,VALID,0,VALID,93.0268,VALID,-0.0339617,VALID,18.6647,VALID,119,VALID,1.18501,
2005-01-31, 00:59:00,VALID,918.445,VALID,0,VALID,93.1959,VALID,-0.0679233,VALID,18.6965,VALID,127,VALID,1.05558,
2005-01-31, 01:00:00,VALID,918.428,VALID,0,VALID,93.2633,VALID,-0.0339617,VALID,18.7094,VALID,132,VALID,1.21361,
2005-01-31, 01:01:00,VALID,918.415,VALID,0,VALID,93.2035,VALID,-0.0849042,VALID,18.7097,VALID,143,VALID,1.22053,
2005-01-31, 01:02:00,VALID,918.401,VALID,0,VALID,93.0357,VALID,-0.0169808,VALID,18.7,VALID,136,VALID,1.27646,
2005-01-31, 01:03:00,VALID,918.409,VALID,0,VALID,93.0293,VALID,-0.0169808,VALID,18.6836,VALID,125,VALID,1.05451,
2005-01-31, 01:04:00,VALID,918.391,VALID,0,VALID,92.9848,VALID,-0.0679233,VALID,18.6908,VALID,123,VALID,0.906822,
2005-01-31, 01:05:00,VALID,918.376,VALID,0,VALID,92.8958,VALID,0,VALID,18.6908,VALID,121,VALID,1.08242,
2005-01-31, 01:06:00,VALID,918.362,VALID,0,VALID,92.8513,VALID,-0.0339617,VALID,18.6809,VALID,121,VALID,1.09691,
2005-01-31, 01:07:00,VALID,918.369,VALID,0,VALID,92.9556,VALID,-0.0339617,VALID,18.694,VALID,123,VALID,1.03716,
2005-01-31, 01:08:00,VALID,918.35,VALID,0,VALID,93.1171,VALID,-0.0339617,VALID,18.7134,VALID,118,VALID,0.892045,
2005-01-31, 01:09:00,VALID,918.35,VALID,0,VALID,93.1539,VALID,-0.0339617,VALID,18.7035,VALID,113,VALID,0.864329,
2005-01-31, 01:10:00,VALID,918.362,VALID,0,VALID,92.7267,VALID,-0.0339617,VALID,18.7131,VALID,109,VALID,1.14965,
2005-01-31, 01:11:00,VALID,918.384,VALID,0,VALID,92.2854,VALID,-0.0339617,VALID,18.7424,VALID,109,VALID,1.23456,
2005-01-31, 01:12:00,VALID,918.383,VALID,0,VALID,92.2244,VALID,-0.0679233,VALID,18.7779,VALID,102,VALID,0.872869,
2005-01-31, 01:13:00,VALID,918.383,VALID,0,VALID,91.9014,VALID,-0.0509425,VALID,18.7971,VALID,104,VALID,0.941592,
2005-01-31, 01:14:00,VALID,918.393,VALID,0,VALID,91.7526,VALID,-0.101885,VALID,18.8135,VALID,108,VALID,0.964939,
2005-01-31, 01:15:00,VALID,918.38,VALID,0,VALID,91.7425,VALID,-0.0849042,VALID,18.8428,VALID,108,VALID,0.931686,
2005-01-31, 01:16:00,VALID,918.37,VALID,0,VALID,91.6687,VALID,-0.101885,VALID,18.8227,VALID,110,VALID,0.917515,
2005-01-31, 01:17:00,VALID,918.342,VALID,0,VALID,91.5301,VALID,-0.101885,VALID,18.8462,VALID,111,VALID,1.0119,
2005-01-31, 01:18:00,VALID,918.333,VALID,0,VALID,91.5886,VALID,-0.0509425,VALID,18.8453,VALID,126,VALID,0.854688,
2005-01-31, 01:19:00,VALID,918.303,VALID,0,VALID,91.5568,VALID,-0.0509425,VALID,18.8646,VALID,126,VALID,1.03553,
2005-01-31, 01:20:00,VALID,918.282,VALID,0,VALID,91.1944,VALID,-0.0509425,VALID,18.8713,VALID,130,VALID,1.15253,
2005-01-31, 01:21:00,VALID,918.247,VALID,0,VALID,90.762,VALID,-0.0509425,VALID,18.8872,VALID,136,VALID,1.13681,
2005-01-31, 01:22:00,VALID,918.217,VALID,0,VALID,90.7379,VALID,-0.0509425,VALID,18.9071,VALID,134,VALID,1.08612,
2005-01-31, 01:23:00,VALID,918.183,VALID,0,VALID,90.6807,VALID,-0.0339617,VALID,18.9265,VALID,130,VALID,1.01653,
2005-01-31, 01:24:00,VALID,918.168,VALID,0,VALID,90.5421,VALID,-0.0339617,VALID,18.9389,VALID,125,VALID,1.07515,
2005-01-31, 01:25:00,VALID,918.142,VALID,0,VALID,90.1936,VALID,-0.0339617,VALID,18.9643,VALID,122,VALID,0.771984,
2005-01-31, 01:26:00,VALID,918.144,VALID,0,VALID,90.4225,VALID,-0.0509425,VALID,19.0035,VALID,103,VALID,0.540334,
2005-01-31, 01:27:00,VALID,918.123,VALID,0,VALID,90.0004,VALID,-0.0339617,VALID,19.0325,VALID,112,VALID,0.960938,
2005-01-31, 01:28:00,VALID,918.108,VALID,0,VALID,89.7588,VALID,-0.0509425,VALID,19.0455,VALID,127,VALID,1.01328,
2005-01-31, 01:29:00,VALID,918.086,VALID,0,VALID,89.198,VALID,-0.0679233,VALID,19.0748,VALID,132,VALID,1.03198,
2005-01-31, 01:30:00,VALID,918.068,VALID,0,VALID,88.9462,VALID,-0.0339617,VALID,19.1423,VALID,139,VALID,1.02726,
2005-01-31, 01:31:00,VALID,918.055,VALID,0,VALID,88.4655,VALID,-0.0849042,VALID,19.1915,VALID,138,VALID,1.17429,
2005-01-31, 01:32:00,VALID,918.022,VALID,0,VALID,88.3447,VALID,-0.0169808,VALID,19.2494,VALID,143,VALID,1.07664,
2005-01-31, 01:33:00,VALID,917.995,VALID,0,VALID,88.58,VALID,-0.0339617,VALID,19.2583,VALID,145,VALID,1.06841,
2005-01-31, 01:34:00,VALID,917.973,VALID,0,VALID,88.7275,VALID,-0.0339617,VALID,19.2616,VALID,144,VALID,1.05256,
2005-01-31, 01:35:00,VALID,917.96,VALID,0,VALID,88.8139,VALID,-0.0339617,VALID,19.239,VALID,142,VALID,1.21348,
2005-01-31, 01:36:00,VALID,917.95,VALID,0,VALID,88.8241,VALID,-0.0339617,VALID,19.2166,VALID,131,VALID,1.19661,
2005-01-31, 01:37:00,VALID,917.963,VALID,0,VALID,88.9576,VALID,-0.0169808,VALID,19.1838,VALID,122,VALID,0.961119,
2005-01-31, 01:38:00,VALID,917.965,VALID,0,VALID,89.0149,VALID,-0.0339617,VALID,19.1716,VALID,101,VALID,0.913491,
2005-01-31, 01:39:00,VALID,917.965,VALID,0,VALID,89.3544,VALID,-0.0169808,VALID,19.1259,VALID,94,VALID,0.905895,
2005-01-31, 01:40:00,VALID,917.973,VALID,0,VALID,89.3798,VALID,0.0169808,VALID,19.0939,VALID,97,VALID,1.07467,
2005-01-31, 01:41:00,VALID,917.977,VALID,0,VALID,89.4243,VALID,0,VALID,19.0715,VALID,109,VALID,1.11403,
2005-01-31, 01:42:00,VALID,917.96,VALID,0,VALID,89.5591,VALID,-0.0509425,VALID,19.0609,VALID,109,VALID,1.13991,
2005-01-31, 01:43:00,VALID,917.927,VALID,0,VALID,89.741,VALID,-0.0509425,VALID,19.0484,VALID,112,VALID,0.848474,
2005-01-31, 01:44:00,VALID,917.914,VALID,0,VALID,89.7816,VALID,0,VALID,19.0293,VALID,127,VALID,0.815848,
2005-01-31, 01:45:00,VALID,917.874,VALID,0,VALID,89.9698,VALID,-0.0339617,VALID,18.9933,VALID,142,VALID,1.10861,
2005-01-31, 01:46:00,VALID,917.857,VALID,0,VALID,90.0258,VALID,-0.0169808,VALID,18.9317,VALID,142,VALID,1.11246,
2005-01-31, 01:47:00,VALID,917.857,VALID,0,VALID,90.1555,VALID,-0.0339617,VALID,18.9161,VALID,142,VALID,1.39503,
2005-01-31, 01:48:00,VALID,917.836,VALID,0,VALID,90.3844,VALID,0,VALID,18.8736,VALID,133,VALID,0.884527,
2005-01-31, 01:49:00,VALID,917.823,VALID,0,VALID,90.6107,VALID,0,VALID,18.8483,VALID,136,VALID,0.929116,
2005-01-31, 01:50:00,VALID,917.813,VALID,0,VALID,90.7608,VALID,-0.0339617,VALID,18.8093,VALID,124,VALID,0.665334,
2005-01-31, 01:51:00,VALID,917.792,VALID,0,VALID,90.9185,VALID,0,VALID,18.7735,VALID,123,VALID,0.515997,
2005-01-31, 01:52:00,VALID,917.779,VALID,0,VALID,90.9413,VALID,-0.0169808,VALID,18.7516,VALID,117,VALID,0.560268,
2005-01-31, 01:53:00,VALID,917.777,VALID,0,VALID,91.1334,VALID,-0.0169808,VALID,18.7226,VALID,92,VALID,0.599702,
2005-01-31, 01:54:00,VALID,917.77,VALID,0,VALID,91.3711,VALID,0,VALID,18.6578,VALID,99,VALID,0.765625,
2005-01-31, 01:55:00,VALID,917.769,VALID,0,VALID,91.4767,VALID,-0.0509425,VALID,18.6128,VALID,105,VALID,0.857195,
2005-01-31, 01:56:00,VALID,917.76,VALID,0,VALID,91.5466,VALID,-0.0339617,VALID,18.6066,VALID,110,VALID,0.763719,
2005-01-31, 01:57:00,VALID,917.746,VALID,0,VALID,91.5949,VALID,-0.0169808,VALID,18.5875,VALID,103,VALID,0.626953,
2005-01-31, 01:58:00,VALID,917.74,VALID,0,VALID,91.5899,VALID,-0.0339617,VALID,18.5512,VALID,97,VALID,0.731957,
2005-01-31, 01:59:00,VALID,917.712,VALID,0,VALID,91.7501,VALID,-0.0509425,VALID,18.5418,VALID,89,VALID,0.481957,
2005-01-31, 02:00:00,VALID,917.702,VALID,0,VALID,91.8251,VALID,-0.0339617,VALID,18.5093,VALID,104,VALID,0.370908,
2005-01-31, 02:01:00,VALID,917.69,VALID,0,VALID,91.7946,VALID,-0.0509425,VALID,18.4835,VALID,116,VALID,0.472565,
2005-01-31, 02:02:00,VALID,917.68,VALID,0,VALID,91.7158,VALID,0,VALID,18.4768,VALID,144,VALID,0.626776,
2005-01-31, 02:03:00,VALID,917.696,VALID,0,VALID,91.6636,VALID,-0.0339617,VALID,18.4832,VALID,130,VALID,0.447545,
2005-01-31, 02:04:00,VALID,917.692,VALID,0,VALID,91.5136,VALID,-0.0509425,VALID,18.5003,VALID,143,VALID,0.691034,
2005-01-31, 02:05:00,VALID,917.679,VALID,0,VALID,91.5212,VALID,-0.0169808,VALID,18.5167,VALID,152,VALID,0.254092,
2005-01-31, 02:06:00,VALID,917.672,VALID,0,VALID,91.6127,VALID,-0.0169808,VALID,18.5065,VALID,150,VALID,0.28995,
2005-01-31, 02:07:00,VALID,917.657,VALID,0,VALID,91.4424,VALID,-0.0169808,VALID,18.5097,VALID,140,VALID,0.409446,
2005-01-31, 02:08:00,VALID,917.642,VALID,0,VALID,91.3851,VALID,0,VALID,18.5031,VALID,140,VALID,0.073331,
2005-01-31, 02:09:00,VALID,917.635,VALID,0,VALID,91.4818,VALID,-0.0509425,VALID,18.4643,VALID,135,VALID,0.145389,
2005-01-31, 02:10:00,VALID,917.626,VALID,0,VALID,91.8238,VALID,-0.0509425,VALID,18.423,VALID,130,VALID,0.283913,
2005-01-31, 02:11:00,VALID,917.642,VALID,0,VALID,92.0209,VALID,-0.0169808,VALID,18.4007,VALID,127,VALID,0.657493,
2005-01-31, 02:12:00,VALID,917.639,VALID,0,VALID,92.0108,VALID,-0.0339617,VALID,18.3808,VALID,119,VALID,0.735828,
2005-01-31, 02:13:00,VALID,917.636,VALID,0,VALID,91.9039,VALID,-0.0509425,VALID,18.3908,VALID,133,VALID,0.601376,
2005-01-31, 02:14:00,VALID,917.635,VALID,0,VALID,91.8645,VALID,-0.0509425,VALID,18.3965,VALID,115,VALID,0.67207,
2005-01-31, 02:15:00,VALID,917.624,VALID,0,VALID,91.9879,VALID,0,VALID,18.403,VALID,116,VALID,0.813227,
2005-01-31, 02:16:00,VALID,917.604,VALID,0,VALID,92.1862,VALID,-0.0169808,VALID,18.3972,VALID,108,VALID,0.801417,
2005-01-31, 02:17:00,VALID,917.586,VALID,0,VALID,92.3643,VALID,-0.0339617,VALID,18.3742,VALID,106,VALID,0.607955,
2005-01-31, 02:18:00,VALID,917.564,VALID,0,VALID,92.5499,VALID,-0.0339617,VALID,18.358,VALID,125,VALID,0.765997,
2005-01-31, 02:19:00,VALID,917.547,VALID,0,VALID,92.6593,VALID,0,VALID,18.3479,VALID,98,VALID,0.399346,
2005-01-31, 02:20:00,VALID,917.537,VALID,0,VALID,92.7356,VALID,-0.0169808,VALID,18.3322,VALID,110,VALID,0.66495,
2005-01-31, 02:21:00,VALID,917.534,VALID,0,VALID,92.6644,VALID,-0.0509425,VALID,18.3391,VALID,112,VALID,0.776278,
2005-01-31, 02:22:00,VALID,917.51,VALID,0,VALID,92.5525,VALID,-0.0169808,VALID,18.3223,VALID,111,VALID,0.734003,
2005-01-31, 02:23:00,VALID,917.469,VALID,0,VALID,92.5843,VALID,-0.0169808,VALID,18.3523,VALID,131,VALID,0.488009,
2005-01-31, 02:24:00,VALID,917.431,VALID,0,VALID,92.5588,VALID,-0.0339617,VALID,18.3481,VALID,138,VALID,0.68006,
2005-01-31, 02:25:00,VALID,917.39,VALID,0,VALID,92.4507,VALID,0,VALID,18.3486,VALID,140,VALID,0.606468,
2005-01-31, 02:26:00,VALID,917.353,VALID,0,VALID,92.4189,VALID,-0.0509425,VALID,18.352,VALID,145,VALID,0.635356,
2005-01-31, 02:27:00,VALID,917.326,VALID,0,VALID,92.2702,VALID,-0.0339617,VALID,18.3527,VALID,142,VALID,1.01172,
2005-01-31, 02:28:00,VALID,917.315,VALID,0,VALID,92.2053,VALID,-0.0339617,VALID,18.3456,VALID,145,VALID,1.09073,
2005-01-31, 02:29:00,VALID,917.298,VALID,0,VALID,92.2295,VALID,-0.0509425,VALID,18.3619,VALID,145,VALID,0.974657,
2005-01-31, 02:30:00,VALID,917.281,VALID,0,VALID,92.2269,VALID,-0.0339617,VALID,18.3783,VALID,145,VALID,1.20793,
2005-01-31, 02:31:00,VALID,917.262,VALID,0,VALID,92.2371,VALID,0,VALID,18.3712,VALID,147,VALID,1.11414,
2005-01-31, 02:32:00,VALID,917.27,VALID,0,VALID,92.1341,VALID,-0.0509425,VALID,18.388,VALID,138,VALID,0.976017,
2005-01-31, 02:33:00,VALID,917.268,VALID,0,VALID,91.9039,VALID,-0.0169808,VALID,18.3912,VALID,119,VALID,1.09775,
2005-01-31, 02:34:00,VALID,917.278,VALID,0,VALID,91.8009,VALID,-0.0339617,VALID,18.3945,VALID,97,VALID,0.768102,
2005-01-31, 02:35:00,VALID,917.273,VALID,0,VALID,91.703,VALID,-0.0679233,VALID,18.3845,VALID,97,VALID,0.886161,
2005-01-31, 02:36:00,VALID,917.293,VALID,0,VALID,91.6407,VALID,-0.0169808,VALID,18.4041,VALID,102,VALID,1.33984,
2005-01-31, 02:37:00,VALID,917.293,VALID,0,VALID,91.3457,VALID,-0.0509425,VALID,18.4041,VALID,98,VALID,1.36563,
2005-01-31, 02:38:00,VALID,917.296,VALID,0,VALID,91.0914,VALID,-0.0679233,VALID,18.4362,VALID,90,VALID,1.06426,
2005-01-31, 02:39:00,VALID,917.327,VALID,0,VALID,90.9884,VALID,-0.0339617,VALID,18.4652,VALID,87,VALID,1.04868,
2005-01-31, 02:40:00,VALID,917.325,VALID,0,VALID,90.9566,VALID,-0.0339617,VALID,18.4493,VALID,103,VALID,1.41908,
2005-01-31, 02:41:00,VALID,917.335,VALID,0,VALID,91.0176,VALID,0,VALID,18.4392,VALID,107,VALID,1.41122,
2005-01-31, 02:42:00,VALID,917.332,VALID,0,VALID,91.1384,VALID,0,VALID,18.4459,VALID,100,VALID,1.4169,
2005-01-31, 02:43:00,VALID,917.329,VALID,0,VALID,91.347,VALID,-0.0339617,VALID,18.4164,VALID,113,VALID,1.08521,
2005-01-31, 02:44:00,VALID,917.312,VALID,0,VALID,91.6484,VALID,-0.0169808,VALID,18.3834,VALID,113,VALID,1.23194,
2005-01-31, 02:45:00,VALID,917.312,VALID,0,VALID,92.04,VALID,-0.0169808,VALID,18.3813,VALID,122,VALID,0.959413,
2005-01-31, 02:46:00,VALID,917.304,VALID,0,VALID,93.1476,VALID,0,VALID,18.323,VALID,123,VALID,1.24896,
2005-01-31, 02:47:00,VALID,917.321,VALID,0,VALID,94.2081,VALID,-0.0169808,VALID,18.2586,VALID,134,VALID,1.19798,
2005-01-31, 02:48:00,VALID,917.33,VALID,0,VALID,95.3462,VALID,-0.0679233,VALID,18.159,VALID,130,VALID,1.39695,
2005-01-31, 02:49:00,VALID,917.324,VALID,0,VALID,96.1104,VALID,-0.0849042,VALID,18.0331,VALID,128,VALID,1.31543,
2005-01-31, 02:50:00,VALID,917.334,VALID,0,VALID,96.4627,VALID,0.0169808,VALID,17.9222,VALID,130,VALID,1.5069,
2005-01-31, 02:51:00,VALID,917.334,VALID,0,VALID,96.689,VALID,0.0339617,VALID,17.8379,VALID,123,VALID,1.32267,
2005-01-31, 02:52:00,VALID,917.346,VALID,0,VALID,96.6598,VALID,0.0339617,VALID,17.7994,VALID,104,VALID,0.807355,
2005-01-31, 02:53:00,VALID,917.351,VALID,0,VALID,96.5008,VALID,0.0339617,VALID,17.7834,VALID,112,VALID,0.941964,
2005-01-31, 02:54:00,VALID,917.372,VALID,0,VALID,96.2414,VALID,0.0849042,VALID,17.7763,VALID,100,VALID,0.924419,
2005-01-31, 02:55:00,VALID,917.364,VALID,0,VALID,95.9057,VALID,0.0509425,VALID,17.7864,VALID,90,VALID,0.898983,
2005-01-31, 02:56:00,VALID,917.381,VALID,0,VALID,95.6615,VALID,0,VALID,17.7991,VALID,90,VALID,0.994851,
2005-01-31, 02:57:00,VALID,917.379,VALID,0,VALID,95.4721,VALID,0.0679233,VALID,17.8153,VALID,89,VALID,1.06694,
2005-01-31, 02:58:00,VALID,917.387,VALID,0,VALID,95.1351,VALID,0.0679233,VALID,17.8381,VALID,90,VALID,1.04688,
2005-01-31, 02:59:00,VALID,917.389,VALID,0,VALID,94.8388,VALID,0.0509425,VALID,17.8478,VALID,88,VALID,1.05508,
2005-01-31, 03:00:00,VALID,917.411,VALID,0,VALID,94.6519,VALID,0.0339617,VALID,17.8607,VALID,85,VALID,1.06882,
2005-01-31, 03:01:00,VALID,917.404,VALID,0,VALID,94.5438,VALID,0.0509425,VALID,17.8704,VALID,79,VALID,1.008,
2005-01-31, 03:02:00,VALID,917.404,VALID,0,VALID,94.4739,VALID,0.0509425,VALID,17.8699,VALID,85,VALID,0.938834,
2005-01-31, 03:03:00,VALID,917.397,VALID,0,VALID,94.3696,VALID,0.101885,VALID,17.8734,VALID,89,VALID,0.644159,
2005-01-31, 03:04:00,VALID,917.36,VALID,0,VALID,94.2017,VALID,0.0169808,VALID,17.8863,VALID,89,VALID,0.538542,
2005-01-31, 03:05:00,VALID,917.342,VALID,0,VALID,94.0174,VALID,-0.0339617,VALID,17.8842,VALID,77,VALID,0.491806,
2005-01-31, 03:06:00,VALID,917.304,VALID,0,VALID,94.0072,VALID,-0.0169808,VALID,17.8779,VALID,83,VALID,0.553445,
2005-01-31, 03:07:00,VALID,917.276,VALID,0,VALID,93.8826,VALID,-0.0509425,VALID,17.8814,VALID,109,VALID,0.746449,
2005-01-31, 03:08:00,VALID,917.246,VALID,0,VALID,93.7452,VALID,-0.0509425,VALID,17.9005,VALID,139,VALID,0.725195,
2005-01-31, 03:09:00,VALID,917.221,VALID,0,VALID,93.5532,VALID,-0.0679233,VALID,17.9234,VALID,149,VALID,0.736919,
2005-01-31, 03:10:00,VALID,917.207,VALID,0,VALID,93.3968,VALID,-0.0169808,VALID,17.9425,VALID,152,VALID,0.600654,
2005-01-31, 03:11:00,VALID,917.188,VALID,0,VALID,93.29,VALID,-0.0509425,VALID,17.9623,VALID,153,VALID,0.658203,
2005-01-31, 03:12:00,VALID,917.179,VALID,0,VALID,93.1959,VALID,0,VALID,17.9782,VALID,152,VALID,0.813453,
2005-01-31, 03:13:00,VALID,917.178,VALID,0,VALID,93.0942,VALID,0.0339617,VALID,18.0034,VALID,141,VALID,0.53125,
2005-01-31, 03:14:00,VALID,917.173,VALID,0,VALID,93.1082,VALID,0.0679233,VALID,17.9833,VALID,127,VALID,0.483103,
2005-01-31, 03:15:00,VALID,917.188,VALID,0,VALID,93.2353,VALID,0.0679233,VALID,17.961,VALID,120,VALID,0.456854,
2005-01-31, 03:16:00,VALID,917.194,VALID,0,VALID,93.3231,VALID,0.0849042,VALID,17.9093,VALID,104,VALID,0.740091,
2005-01-31, 03:17:00,VALID,917.198,VALID,0,VALID,93.4858,VALID,0.0679233,VALID,17.8512,VALID,82,VALID,0.878534,
2005-01-31, 03:18:00,VALID,917.214,VALID,0,VALID,94.0072,VALID,0.0339617,VALID,17.7869,VALID,78,VALID,0.936806,
2005-01-31, 03:19:00,VALID,917.222,VALID,0,VALID,94.6481,VALID,0.0339617,VALID,17.735,VALID,85,VALID,0.908203,
2005-01-31, 03:20:00,VALID,917.221,VALID,0,VALID,94.4967,VALID,0.0339617,VALID,17.7161,VALID,70,VALID,0.643714,
2005-01-31, 03:21:01,VALID,917.213,VALID,0,VALID,94.4026,VALID,-0.0339617,VALID,17.678,VALID,69,VALID,0.585751,
2005-01-31, 03:22:00,VALID,917.197,VALID,0,VALID,94.4777,VALID,-0.0849042,VALID,17.6337,VALID,69,VALID,0.46782,
2005-01-31, 03:23:00,VALID,917.185,VALID,0,VALID,94.6659,VALID,-0.0509425,VALID,17.5881,VALID,69,VALID,0.513221,
2005-01-31, 03:24:00,VALID,917.175,VALID,0,VALID,94.8566,VALID,-0.0169808,VALID,17.5842,VALID,83,VALID,0.56715,
2005-01-31, 03:25:00,VALID,917.168,VALID,0,VALID,94.8566,VALID,-0.0849042,VALID,17.6139,VALID,105,VALID,0.440341,
2005-01-31, 03:26:01,VALID,917.155,VALID,0,VALID,94.6799,VALID,-0.0509425,VALID,17.6329,VALID,97,VALID,0.660547,
2005-01-31, 03:27:00,VALID,917.14,VALID,0,VALID,94.3645,VALID,-0.0339617,VALID,17.675,VALID,79,VALID,0.539463,
2005-01-31, 03:28:00,VALID,917.14,VALID,0,VALID,94.0568,VALID,-0.0339617,VALID,17.6458,VALID,70,VALID,0.676562,
2005-01-31, 03:29:00,VALID,917.124,VALID,0,VALID,94.0708,VALID,-0.0339617,VALID,17.6243,VALID,62,VALID,0.711632,
2005-01-31, 03:30:00,VALID,917.126,VALID,0,VALID,94.0835,VALID,-0.0169808,VALID,17.5524,VALID,60,VALID,0.76669,